Tracking 25686 objects as of 26-May-2022
HD Live streaming from Space Station
objects crossing your sky now

DSAT

Track DSAT now!
10-day predictions
DSAT is classified as:


NORAD ID: 42794
Int'l Code: 2017-036AF
Perigee: 510.8 km
Apogee: 683.6 km
Inclination: 97.5 °
Period: 96.5 minutes
Semi major axis: 6968 km
RCS: Unknown
Launch date: June 23, 2017
Source: Italy (IT)
Launch site: SRIHARIKOTA (SRI)

Uplink (MHz):
Downlink (MHz): 437.505
Beacon (MHz): 437.505
Mode: 4800bps GMSK CW
Call sign: U1-DSAT-U1
Status: Inactive

aabbcc
Your satellite tracking list
Your tracking list is empty




NASA's NSSDC Master Catalog

Two Line Element Set (TLE):
1 42794U 17036AF  22145.48642900  .00003195  00000-0  27290-3 0  9991
2 42794  97.4510 152.1127 0123984 161.3939 199.1875 14.92524813268052
Source of the keplerian elements: AMSAT